TimeEDT,TemperatureF,Dew PointF,Humidity,Sea Level PressureIn,VisibilityMPH,Wind Direction,Wind SpeedMPH,Gust SpeedMPH,PrecipitationIn,Events,Conditions,WindDirDegrees,DateUTC
12:58 AM,75.2,71.4,88,29.96,10.0,NW,5.8,-,N/A,,Mostly Cloudy,310,2013-10-16 04:58:00
1:58 AM,74.8,71.8,90,29.96,10.0,NW,4.6,-,N/A,,Clear,320,2013-10-16 05:58:00
2:58 AM,74.3,71.4,91,29.95,10.0,West,3.5,-,N/A,,Clear,270,2013-10-16 06:58:00
3:58 AM,74.1,71.8,92,29.94,10.0,West,5.8,-,N/A,,Clear,280,2013-10-16 07:58:00
4:58 AM,73.6,71.1,92,29.94,10.0,WNW,4.6,-,N/A,,Clear,290,2013-10-16 08:58:00
5:58 AM,72.9,71.1,94,29.95,10.0,West,6.9,-,N/A,,Clear,280,2013-10-16 09:58:00
6:58 AM,72.1,70.7,95,29.96,10.0,WNW,8.1,-,N/A,,Partly Cloudy,300,2013-10-16 10:58:00
7:08 AM,71.6,69.8,94,29.95,9.0,WNW,6.9,-,N/A,,Scattered Clouds,300,2013-10-16 11:08:00
7:13 AM,71.6,69.8,94,29.95,9.0,WNW,6.9,-,N/A,,Scattered Clouds,300,2013-10-16 11:13:00
7:18 AM,71.6,69.8,94,29.96,10.0,WNW,8.1,-,N/A,,Mostly Cloudy,290,2013-10-16 11:18:00
7:58 AM,72.0,70.5,95,29.98,10.0,NW,5.8,-,N/A,,Mostly Cloudy,310,2013-10-16 11:58:00
8:58 AM,72.1,70.7,95,29.99,4.0,WNW,5.8,-,N/A,,Overcast,290,2013-10-16 12:58:00
9:13 AM,71.6,71.6,100,29.97,2.5,NW,5.8,-,N/A,,Overcast,310,2013-10-16 13:13:00
9:23 AM,71.6,69.8,94,29.97,1.5,WNW,4.6,-,N/A,,Overcast,290,2013-10-16 13:23:00
9:28 AM,71.6,69.8,94,29.98,0.8,West,3.5,-,N/A,,Mist,280,2013-10-16 13:28:00
9:33 AM,71.6,69.8,94,29.98,0.5,WNW,4.6,-,N/A,Fog,Fog,300,2013-10-16 13:33:00
9:38 AM,71.6,69.8,94,29.98,0.8,WNW,3.5,-,N/A,,Mist,300,2013-10-16 13:38:00
9:43 AM,71.6,69.8,94,29.98,1.8,WNW,5.8,-,N/A,,Overcast,300,2013-10-16 13:43:00
9:48 AM,73.4,69.8,88,29.98,3.0,WNW,5.8,-,N/A,,Overcast,290,2013-10-16 13:48:00
9:58 AM,72.9,70.5,92,29.99,8.0,NW,4.6,-,N/A,,Overcast,310,2013-10-16 13:58:00
10:18 AM,73.4,69.8,88,29.98,2.5,West,5.8,-,N/A,,Overcast,270,2013-10-16 14:18:00
10:23 AM,73.4,69.8,88,29.98,4.0,West,5.8,-,N/A,,Overcast,280,2013-10-16 14:23:00
10:58 AM,75.2,71.1,87,29.99,10.0,WNW,6.9,-,N/A,,Overcast,290,2013-10-16 14:58:00
11:23 AM,77.0,71.6,83,29.98,10.0,WNW,9.2,-,N/A,,Overcast,290,2013-10-16 15:23:00
11:44 AM,77.0,71.6,83,29.99,10.0,WNW,6.9,-,N/A,,Overcast,300,2013-10-16 15:44:00
11:56 AM,78.8,69.8,74,29.98,10.0,WNW,9.2,-,N/A,,Overcast,300,2013-10-16 15:56:00
12:12 PM,78.8,69.8,74,29.98,10.0,WNW,9.2,-,N/A,,Scattered Clouds,300,2013-10-16 16:12:00
12:58 PM,79.5,70.2,73,29.98,10.0,NW,5.8,-,N/A,,Clear,320,2013-10-16 16:58:00
1:58 PM,82.2,69.6,66,29.96,10.0,NW,5.8,-,N/A,,Clear,320,2013-10-16 17:58:00
2:58 PM,82.2,70.3,67,29.95,10.0,NW,4.6,-,N/A,,Clear,310,2013-10-16 18:58:00
3:58 PM,82.9,70.5,66,29.94,10.0,ENE,8.1,-,N/A,,Clear,60,2013-10-16 19:58:00
4:58 PM,81.7,71.6,71,29.93,10.0,ENE,8.1,-,N/A,,Clear,60,2013-10-16 20:58:00
5:58 PM,80.6,69.1,68,29.94,10.0,NE,5.8,-,N/A,,Clear,40,2013-10-16 21:58:00
6:58 PM,79.3,70.2,73,29.94,10.0,NE,6.9,-,N/A,,Clear,50,2013-10-16 22:58:00
7:58 PM,79.0,70.0,74,29.95,10.0,NE,6.9,-,N/A,,Clear,50,2013-10-16 23:58:00
8:58 PM,78.6,69.6,74,29.96,10.0,NE,9.2,-,N/A,,Clear,50,2013-10-17 00:58:00
9:58 PM,78.3,69.8,75,29.98,10.0,NE,5.8,-,N/A,,Clear,50,2013-10-17 01:58:00
10:58 PM,77.7,69.6,76,29.99,10.0,ENE,4.6,-,N/A,,Clear,70,2013-10-17 02:58:00
11:58 PM,77.9,70.7,78,29.96,10.0,NE,1.2,-,N/A,,Clear,50,2013-10-17 03:58:00